Regional Weather Roundup
Issued by NWS

Home | Current Version | Previous Version | Graphics & Text | Print | Product List | Glossary On
Versions: 1 2 3 4 5 6 7 8 9 10 11 12 13 14 15 16 17 18 19 20 21 22 23 24 25 26 27 28 29 30 31 32 33 34 35 36 37 38 39 40 41 42 43 44 45 46 47 48 49 50
000
ASUS43 KMKX 241159
RWRWI

WISCONSIN REGIONAL WEATHER ROUNDUP
NATIONAL WEATHER SERVICE MILWAUKEE/SULLIVAN WI
700 AM CDT THU JUL 24 2014

NOTE: "FAIR" INDICATES FEW OR NO CLOUDS BELOW 12,000 FEET WITH NO
SIGNIFICANT WEATHER AND/OR OBSTRUCTIONS TO VISIBILITY.

WIZ001-002-006>008-014>016-023>028-241300-
NORTHWEST WISCONSIN

CITY           SKY/WX    TMP DP  RH WIND       PRES   REMARKS
SUPERIOR ARPT  PTSUNNY   53  53  99 CALM      30.18F FOG
ASHLAND        SUNNY     54  53  97 CALM      30.19S
6HR MIN TEMP:  48; 6HR MAX TEMP:  54;

HAYWARD        CLOUDY    58  54  86 NE3       30.19S
6HR MIN TEMP:  50; 6HR MAX TEMP:  58;

SIREN          MOSUNNY   57  55  92 CALM      30.17F
RICE LAKE      PTSUNNY   56  54  91 CALM      30.20S
LADYSMITH      CLOUDY    56  53  89 CALM      30.21F
EAU CLAIRE     MOSUNNY   58  56  93 NE3       30.17F
6HR MIN TEMP:  54; 6HR MAX TEMP:  61;

MENOMONIE      CLOUDY    58  56  93 CALM      30.18S
NEW RICHMOND   MOSUNNY   59  56  91 E3        30.17F
OSCEOLA        SUNNY     56  56 100 E3        30.19F
$$

WIZ003>005-009-010-017-018-241300-
NORTH CENTRAL WISCONSIN

CITY           SKY/WX    TMP DP  RH WIND       PRES   REMARKS
WOODRUFF       PTSUNNY   49  44  81 CALM      30.22S
RHINELANDER    MOSUNNY   55  52  89 SW5       30.23R
6HR MIN TEMP:  42; 6HR MAX TEMP:  55;

EAGLE RIVER    MOSUNNY   44  44 100 CALM      30.22S
LAND O LAKES   MOSUNNY   44  44 100 CALM      30.23R
PHILLIPS       CLOUDY    53  52  95 CALM      30.21S
TOMAHAWK       CLOUDY    48  47  97 CALM      30.23R
MEDFORD        CLOUDY    52  50  94 CALM      30.21S
MERRILL        SUNNY     47  47  99 CALM      30.22R
$$

WIZ029-030-035-036-043>047-241300-
CENTRAL WISCONSIN

CITY           SKY/WX    TMP DP  RH WIND       PRES   REMARKS
WAUSAU         SUNNY     55  52  89 CALM      30.20S
6HR MIN TEMP:  52; 6HR MAX TEMP:  58;

MOSINEE        SUNNY     54  54 100 CALM      30.22S
MARSHFIELD     SUNNY     57  54  89 S3        30.20S
6HR MIN TEMP:  54; 6HR MAX TEMP:  61;

STEVENS POINT  MOSUNNY   50  48  95 CALM      30.21S
WAUPACA        PTSUNNY   55  53  95 CALM      30.21S
WAUTOMA        NOT AVBL
WISC RAPIDS    SUNNY     55  51  86 CALM      30.21F
6HR MIN TEMP:  51; 6HR MAX TEMP:  61;

CAMP DOUGLAS   SUNNY     52  52 100 CALM      30.20S FOG
$$

WIZ011>013-019>022-031-037>040-048>050-241300-
NORTHEAST WISCONSIN

CITY           SKY/WX    TMP DP  RH WIND       PRES   REMARKS
ANTIGO         SUNNY     48  47  97 CALM      30.22S
STURGEON BAY   SUNNY     54  48  82 CALM      30.20S
6HR MIN TEMP:  46; 6HR MAX TEMP:  54;

GREEN BAY      SUNNY     56  52  86 CALM      30.20S
6HR MIN TEMP:  51; 6HR MAX TEMP:  56;

MANITOWOC      NOT AVBL
APPLETON       MOSUNNY   55  48  76 W6        30.21S
CLINTONVILLE   SUNNY     52  50  93 CALM      30.21S
OSHKOSH        SUNNY     59  53  80 CALM      30.20S
6HR MIN TEMP:  54; 6HR MAX TEMP:  59;

$$

WIZ032>034-041-042-053>061-241300-
SOUTHWEST WISCONSIN

CITY           SKY/WX    TMP DP  RH WIND       PRES   REMARKS
LA CROSSE      SUNNY     62  56  80 E5        30.18S
6HR MIN TEMP:  60; 6HR MAX TEMP:  66;

SPARTA         SUNNY     49  48  96 CALM      30.20S
VIROQUA        FAIR      56  56  98 CALM      30.20S
BOSCOBEL       SUNNY     56  54  93 CALM      30.20S
6HR MIN TEMP:  51; 6HR MAX TEMP:  62;

PRAIRIE DU CHI SUNNY     58  54  85 E5        30.18S
PLATTEVILLE    FAIR      57  53  86 CALM      30.21R
$$

WIZ056-057-062-063-064-067-068-241300-
SOUTH CENTRAL WISCONSIN

CITY           SKY/WX    TMP DP  RH WIND       PRES   REMARKS
BARABOO/DELLS  PTSUNNY   55  49  82 CALM      30.20R
LONE ROCK      NOT AVBL
WATERTOWN      SUNNY     53  51  92 CALM      30.20S
MADISON        MOSUNNY   58  52  80 CALM      30.20R
6HR MIN TEMP:  52; 6HR MAX TEMP:  59;

MIDDLETON      FAIR      53  51  94 CALM      30.20S
MONROE         MOSUNNY   55  50  82 NE3       30.19S
JANESVILLE     MOSUNNY   54  52  94 NW5       30.19R
$$

WIZ051-052-058>065-066-070>072-241300-
SOUTHEAST WISCONSIN

CITY           SKY/WX    TMP DP  RH WIND       PRES   REMARKS
MILWAUKEE      MOSUNNY   59  51  75 N6        30.20R
6HR MIN TEMP:  55; 6HR MAX TEMP:  59;

WAUKESHA       SUNNY     54  52  94 W8        30.21R
MILWAUKEE/TIMM SUNNY     55  48  76 CALM      30.21S
RACINE         SUNNY     58  53  84 N7        30.21R
6HR MIN TEMP:  53; 6HR MAX TEMP:  58;

BURLINGTON     SUNNY     48  48 100 CALM      30.19S
KENOSHA        SUNNY     57  52  83 N6        30.19R
6HR MIN TEMP:  53; 6HR MAX TEMP:  57;

FOND DU LAC    SUNNY     55  51  86 CALM      30.21S
6HR MIN TEMP:  50; 6HR MAX TEMP:  56;

SHEBOYGAN      SUNNY     56  51  84 CALM      30.20S
6HR MIN TEMP:  49; 6HR MAX TEMP:  56;

WEST BEND      SUNNY     50  46  87 CALM      30.20S
JUNEAU         PTSUNNY   55  47  76 NE3       30.22R
$$

LSZ147-162-241300-
LAKE SUPERIOR

STATION/POSITION TIME  TEMP    WIND        PRES    WAVE
                       AIR SEA DIR/SP/G            HT/PER
                 (UTC) (F)     (DEG/KT/KT) (MB)    (FT/S)
$$

LMZ867-665-643>646-241300-
LAKE MICHIGAN

STATION/POSITION TIME  TEMP    WIND        PRES    WAVE
                       AIR SEA DIR/SP/G            HT/PER
                 (UTC) (F)     (DEG/KT/KT) (MB)    (FT/S)
$$

TC  - TEMPERATURE IN CELSIUS
VSB - VISIBILITY IN STATUTE MILES
WCI - WIND CHILL INDEX
HX  - HEAT INDEX




USA.gov is the U.S. government's official web portal to all federal, state and local government web resources and services.